Lapse_Rate
6.4 6.3 6.3 6.1 5.7 5.3 4.7 5.6 5.8 5.9 5.9 6.1 5.8 5.9 5.8 5.8 5.8 5.7 6.0 6.2 6.3 6.3 6.1 6.1 5.9 5.8 5.6 5.7 5.7 5.8 5.9 5.8
6.4 6.1 6.3 6.2 5.5 5.1 5.3 5.6 5.7 5.4 5.4 5.4 5.7 5.7 5.4 5.7 5.7 5.9 6.1 6.2 6.2 6.1 6.0 5.9 5.7 5.7 5.8 5.8 5.8 6.0 5.7 5.1
6.5 6.6 6.4 6.2 6.3 4.9 4.7 4.2 5.1 5.1 5.3 5.0 5.4 5.5 5.4 5.7 5.9 6.2 6.4 6.2 6.0 6.1 5.9 5.7 5.8 5.7 5.7 5.8 5.8 5.6 5.5 5.4
6.8 6.4 6.1 6.2 6.2 5.8 5.3 4.9 4.5 4.5 4.7 5.0 5.2 5.5 5.7 5.8 6.5 6.8 6.3 6.0 5.9 5.9 5.8 5.8 5.8 5.9 5.8 5.8 5.7 5.6 5.7 5.6
6.0 5.9 6.1 6.4 5.7 5.4 5.0 4.0 3.8 4.7 4.2 4.5 5.2 5.6 5.5 6.2 6.2 7.1 6.2 5.9 5.9 5.8 5.7 5.8 5.7 5.7 5.7 5.7 5.7 5.7 5.7 5.8
5.7 6.1 5.8 6.1 5.8 4.7 4.7 3.4 3.6 4.3 4.3 4.3 4.7 5.2 5.1 5.8 6.3 6.6 6.0 5.7 5.8 5.8 5.7 5.8 5.8 5.7 5.6 5.7 5.8 5.8 5.7 5.5
5.9 5.8 5.9 5.5 5.6 4.4 4.6 4.5 3.9 3.4 3.6 4.1 4.4 5.8 5.9 6.1 6.3 6.0 5.9 5.7 5.6 5.9 5.9 5.8 5.7 5.6 5.8 5.7 5.8 5.8 5.7 5.4
5.3 5.3 5.6 5.1 5.0 4.7 4.2 3.6 3.1 4.2 4.3 5.5 5.8 5.9 6.0 6.0 5.9 6.0 5.9 5.8 6.0 6.0 5.9 5.8 5.8 5.7 5.6 5.7 5.8 5.5 5.5 5.4
4.5 4.6 4.5 4.4 4.4 4.5 4.4 4.1 4.5 5.3 5.2 5.7 6.1 5.9 6.0 6.1 6.1 5.9 6.0 6.0 5.8 6.0 5.9 5.8 5.7 5.6 5.7 5.7 5.5 5.5 5.6 5.6
5.5 5.2 5.0 4.5 4.5 4.3 4.3 5.2 5.4 6.0 5.5 5.8 5.7 5.9 6.1 6.0 6.2 6.3 6.2 6.1 6.1 6.1 5.8 5.8 5.6 5.7 5.7 5.5 5.4 5.6 5.6 5.6
6.2 5.9 5.9 5.6 5.4 5.2 5.0 5.4 5.6 5.5 5.3 5.8 6.0 6.2 6.2 6.2 6.4 6.4 6.2 6.1 6.1 6.0 6.0 5.9 5.9 5.8 5.7 5.6 5.6 5.6 5.9 6.1
5.7 5.4 5.6 5.6 5.5 5.9 6.1 5.7 6.0 6.0 6.1 6.0 6.3 6.3 6.4 6.3 6.3 6.2 6.1 6.1 6.1 6.3 6.1 5.7 5.7 5.7 5.5 5.3 5.5 5.8 6.0 6.3
6.0 5.9 6.0 5.8 5.9 5.8 5.7 6.6 6.6 6.4 6.2 6.2 6.4 6.5 6.3 6.2 6.2 6.2 6.1 6.3 6.4 6.2 6.0 5.9 5.8 5.8 5.4 5.3 5.0 5.6 6.3 6.6
6.6 6.6 6.6 6.5 6.6 6.7 6.7 6.5 6.5 6.5 6.5 6.5 6.5 6.4 6.3 6.2 6.3 6.3 6.3 6.4 6.3 6.2 5.9 5.9 5.7 5.9 5.6 5.8 6.0 5.3 4.4 5.7
7.0 6.9 6.9 6.8 6.9 6.8 6.7 6.6 6.7 6.7 6.7 6.8 6.6 6.6 6.5 6.4 6.4 6.4 6.6 6.4 6.3 5.9 5.9 5.8 5.9 5.9 6.2 6.0 6.0 5.6 5.3 4.3
7.2 7.2 7.1 7.1 7.0 6.6 7.0 6.9 6.7 6.7 6.6 6.6 6.5 6.5 6.3 6.4 6.5 6.3 6.4 6.4 6.2 6.0 5.9 5.9 6.0 5.6 5.9 5.9 5.8 5.9 6.0 6.0
7.5 7.4 7.2 7.0 7.2 7.2 6.9 6.9 6.9 6.8 6.6 6.6 6.7 6.8 6.5 6.6 6.3 6.3 6.3 6.2 6.3 6.1 6.0 5.9 5.6 5.6 5.8 5.5 5.4 5.8 6.1 6.4
7.7 7.5 7.5 7.4 7.4 7.3 7.1 7.1 6.7 6.6 7.0 6.5 6.5 6.7 6.8 6.3 6.3 6.5 6.3 6.3 6.2 6.0 6.0 5.7 5.4 5.9 5.8 5.6 5.7 5.5 5.5 5.5
7.8 7.6 7.5 7.3 7.6 7.3 7.3 7.3 6.4 6.2 6.3 6.3 6.6 6.9 6.9 6.5 6.2 6.1 6.3 6.1 6.1 5.9 5.7 5.7 6.0 5.8 5.8 5.5 5.6 5.8 6.0 6.0
8.0 7.8 7.7 6.8 6.8 6.9 6.8 6.4 6.5 6.8 6.9 6.7 6.8 6.6 6.7 6.4 6.2 6.5 6.3 6.3 6.0 5.7 5.7 5.9 5.8 5.5 5.7 5.8 6.1 5.8 5.9 5.7
Wind_Speed
18 20 23 21 20 21 22 19 22 21 21 20 22 21 21 20 18 19 21 22 20 19 17 17 15 12 9 9 8 9 8 9
15 16 17 20 18 19 22 21 21 22 21 21 24 20 20 21 20 18 20 21 20 18 17 15 12 10 9 4 2 8 10 8
16 14 16 18 21 20 19 19 21 24 24 23 23 18 17 16 21 19 20 21 20 18 16 15 13 11 6 2 6 10 9 9
11 11 15 18 17 22 21 18 18 18 18 19 14 14 14 15 16 19 19 20 17 16 14 14 15 10 6 4 10 7 7 7
9 12 12 12 11 11 18 15 12 15 14 8 13 12 15 12 11 13 14 15 13 13 12 5 8 6 7 8 8 7 7 7
10 10 13 13 13 10 12 11 11 10 10 11 9 8 8 12 13 14 13 12 12 7 7 7 6 6 6 6 6 8 8 5
11 11 12 16 13 6 9 6 8 10 9 11 12 9 7 11 9 12 11 10 9 8 8 6 5 5 5 5 5 4 4 5
11 10 11 12 10 10 10 17 12 11 11 11 10 11 9 9 9 9 9 10 8 7 8 6 3 3 4 4 4 4 3 3
12 9 12 12 13 12 15 14 14 9 8 12 12 12 11 11 10 8 9 8 7 7 7 5 5 4 3 3 2 2 2 3
19 17 19 23 22 13 9 11 8 10 16 13 15 13 11 10 9 9 10 10 9 9 6 4 3 2 2 1 1 1 1 1
19 16 15 8 8 6 7 8 12 19 17 12 15 14 13 12 9 9 10 9 8 7 4 3 3 2 3 2 1 3 2 1
21 16 16 14 10 10 10 10 10 14 9 15 13 13 13 12 9 8 12 7 6 6 5 3 2 1 3 3 3 3 3 3
17 17 17 12 9 10 9 9 9 8 13 15 15 13 13 12 9 11 12 7 7 6 5 6 4 1 4 7 6 6 5 5
20 18 16 13 11 10 9 10 11 11 14 12 13 13 14 14 11 10 12 8 7 8 7 5 3 2 3 6 6 5 7 8
19 19 15 13 15 10 9 9 5 7 9 9 12 15 15 15 14 12 11 9 8 9 7 6 4 4 5 4 4 5 4 8
21 20 18 14 14 10 14 11 10 9 9 8 8 13 15 14 11 12 11 11 9 8 7 5 4 4 4 6 6 6 4 5
19 20 19 17 17 14 11 13 9 9 9 10 11 10 14 13 15 15 12 10 5 6 7 6 3 5 5 6 6 6 7 6
18 20 21 19 15 16 11 11 10 6 8 9 8 8 9 15 17 13 14 8 5 8 8 7 5 4 6 6 5 6 6 7
17 21 20 19 16 14 11 9 9 10 9 8 10 9 10 12 7 7 8 11 12 12 8 3 4 7 7 6 6 7 6 6
21 21 18 19 15 16 12 14 10 12 13 9 10 10 8 7 7 11 13 13 14 8 4 5 6 7 9 3 6 7 6 6
Wind_Direction
118 133 115 101 110 120 126 129 128 127 122 116 107 109 110 106 106 104 102 104 111 109 108 103 95 91 87 71 36 2 48 67
118 117 122 116 104 104 117 121 118 113 109 111 113 114 115 114 110 103 103 106 110 111 107 100 99 103 97 91 327 303 35 44
119 111 107 114 111 112 110 109 118 116 119 131 131 132 132 131 106 112 113 113 117 120 116 125 122 105 104 279 285 36 14 18
118 118 114 114 135 144 137 142 141 127 140 161 146 119 140 105 108 110 114 114 115 122 138 162 175 143 136 207 41 9 38 30
120 118 101 112 122 137 135 128 146 125 160 120 92 98 103 116 132 132 133 132 131 146 181 183 51 47 57 28 14 352 20 39
108 92 101 81 79 100 106 114 104 130 144 116 112 135 170 159 175 153 156 166 157 161 107 99 91 74 57 49 31 7 23 29
95 97 101 98 94 76 60 69 156 155 153 153 170 169 203 194 158 169 166 148 172 141 138 132 124 83 41 30 31 47 359 357
111 115 120 118 122 135 176 202 140 167 178 184 184 205 180 173 178 157 159 175 164 155 150 158 108 97 82 36 29 14 35 0
140 132 127 124 139 171 182 168 177 177 187 195 211 214 186 185 178 173 164 163 144 124 162 155 145 137 116 112 168 127 6 350
155 151 172 177 181 177 176 167 169 210 203 190 211 206 193 196 175 182 167 171 172 171 180 157 154 164 120 187 211 238 12 323
166 165 185 163 199 196 205 191 207 209 214 189 202 201 195 205 185 183 175 182 176 181 175 193 145 199 198 225 319 299 252 260
169 168 181 185 189 210 192 206 214 239 198 214 195 203 193 205 191 177 199 188 179 189 168 163 213 325 280 228 237 246 255 254
189 192 186 189 203 198 199 208 202 212 221 222 195 207 195 204 191 191 210 192 196 173 174 191 175 159 289 248 207 187 218 244
192 198 205 200 203 200 209 200 201 209 201 212 214 209 203 202 202 196 206 192 178 191 204 189 212 205 289 294 288 185 192 208
201 208 199 198 216 198 206 210 209 218 232 201 209 211 212 206 202 205 197 196 192 196 198 209 223 197 245 303 305 286 327 179
203 207 197 196 214 213 204 209 204 213 229 218 211 208 222 207 193 208 199 210 203 197 197 201 213 247 213 246 263 305 294 282
204 207 211 206 188 224 203 215 213 206 210 214 213 190 210 211 199 204 209 212 205 210 191 202 204 246 258 255 231 245 239 270
199 207 209 213 183 198 230 223 230 253 209 208 202 209 207 207 203 196 202 205 195 207 198 201 238 288 255 262 271 266 264 259
200 206 209 204 191 190 182 174 229 242 216 212 211 211 208 209 182 172 196 212 209 210 197 170 203 243 257 258 260 273 277 275
201 203 204 197 189 176 188 201 215 221 218 208 223 225 207 172 182 195 207 210 211 180 176 212 219 243 252 254 276 272 267 267